2020-085Q

Last updated on Fri Dec 18 2020 00:02:03 GMT+0000 (Coordinated Universal Time)

1 46943U 20085Q 20352.58117326 .00001838 00000-0 87130-4 0 9999 2 46943 97.3605 126.5671 0011947 200.4903 221.4641 15.20478221 4170
UTC large
Height (km)
Speed (km/s)
/
Latitude / Longitude
Inclination (degrees)
Orbital Period (minutes)
Azimuth
Elevation
Range (km)
Doppler Factor

Next 0 passes for location: London (51.5072 / 0.1276)

Sorry there are no passes over London.